| time (UTC) | temp F | wind direction | speed MPH | gust MPH | rain 1hr in | rain 24hr in | rain mn in | humidity % | barometer mb |
| 20260506044517 | 31 | 16 | 5.0 | 8.0 | 0.00 | 0.00 | 0.00 | 73 | 1013.1 |
| 20260506043014 | 30 | 355 | 3.0 | 8.0 | 0.00 | 0.00 | 0.00 | 75 | 1013.1 |
| 20260506041510 | 30 | 350 | 4.0 | 6.0 | 0.00 | 0.00 | 0.00 | 76 | 1013.1 |
| 20260506040009 | 29 | 350 | 3.0 | 6.0 | 0.00 | 0.00 | 0.00 | 78 | 1013.0 |
| 20260506034510 | 29 | 348 | 4.0 | 8.0 | 0.00 | 0.00 | 0.00 | 78 | 1012.9 |
| 20260506033009 | 29 | 350 | 3.0 | 6.0 | 0.00 | 0.00 | 0.00 | 79 | 1012.9 |
| 20260506031514 | 29 | 351 | 4.0 | 8.0 | 0.00 | 0.00 | 0.00 | 78 | 1012.7 |
| 20260506030010 | 29 | 355 | 4.0 | 8.0 | 0.00 | 0.00 | 0.00 | 77 | 1012.7 |
| 20260506024510 | 29 | 355 | 4.0 | 6.0 | 0.00 | 0.00 | 0.00 | 77 | 1012.7 |
| 20260506023010 | 30 | 355 | 5.0 | 8.0 | 0.00 | 0.00 | 0.00 | 75 | 1012.8 |
| 20260506021509 | 30 | 360 | 5.0 | 8.0 | 0.00 | 0.00 | 0.00 | 76 | 1012.8 |
| 20260506020010 | 30 | 360 | 5.0 | 6.0 | 0.00 | 0.00 | 0.00 | 76 | 1012.7 |
| 20260506014511 | 30 | 355 | 4.0 | 5.0 | 0.00 | 0.00 | 0.00 | 75 | 1012.7 |
| 20260506013011 | 30 | 360 | 5.0 | 8.0 | 0.00 | 0.00 | 0.00 | 73 | 1012.6 |
| 20260506011510 | 30 | 355 | 6.0 | 8.0 | 0.00 | 0.00 | 0.00 | 73 | 1012.6 |
| 20260506010011 | 30 | 355 | 6.0 | 8.0 | 0.00 | 0.00 | 0.00 | 72 | 1012.6 |
| 20260506004509 | 31 | 360 | 5.0 | 8.0 | 0.00 | 0.00 | 0.00 | 71 | 1012.6 |
| 20260506003009 | 31 | 5 | 5.0 | 6.0 | 0.00 | 0.00 | 0.00 | 69 | 1012.6 |
| 20260506001509 | 32 | 11 | 3.0 | 8.0 | 0.00 | 0.00 | 0.00 | 68 | 1012.5 |
| 20260506000010 | 32 | 9 | 4.0 | 6.0 | 0.00 | 0.00 | 0.00 | 67 | 1012.5 |
| 20260505234518 | 33 | 5 | 6.0 | 8.0 | 0.00 | 0.00 | 0.00 | 65 | 1012.5 |
| 20260505233015 | 34 | 16 | 3.0 | 5.0 | 0.00 | 0.00 | 0.00 | 62 | 1012.5 |
| 20260505231513 | 34 | 17 | 3.0 | 5.0 | 0.00 | 0.00 | 0.00 | 64 | 1012.5 |
| 20260505230012 | 35 | 21 | 3.0 | 5.0 | 0.00 | 0.00 | 0.00 | 62 | 1012.5 |
| 20260505224510 | 36 | 24 | 1.0 | 3.0 | 0.00 | 0.00 | 0.00 | 58 | 1012.5 |
| 20260505223011 | 37 | 24 | 1.0 | 4.0 | 0.00 | 0.00 | 0.00 | 57 | 1012.5 |
| 20260505221504 | 38 | 24 | 2.0 | 5.0 | 0.00 | 0.00 | 0.00 | 53 | 1012.4 |
| 20260505220011 | 38 | 28 | 3.0 | 6.0 | 0.00 | 0.00 | 0.00 | 53 | 1012.4 |
| 20260505214510 | 38 | 27 | 2.0 | 8.0 | 0.00 | 0.00 | 0.00 | 53 | 1012.4 |
| 20260505213012 | 38 | 24 | 3.0 | 6.0 | 0.00 | 0.00 | 0.00 | 54 | 1012.4 |
| 20260505211509 | 40 | 11 | 4.0 | 5.0 | 0.00 | 0.00 | 0.00 | 49 | 1012.4 |
| 20260505210011 | 40 | 9 | 3.0 | 7.0 | 0.00 | 0.00 | 0.00 | 47 | 1012.4 |
| 20260505204522 | 41 | 321 | 2.0 | 5.0 | 0.00 | 0.00 | 0.00 | 44 | 1012.3 |
| 20260505203009 | 42 | 321 | 2.0 | 4.0 | 0.00 | 0.00 | 0.00 | 42 | 1012.2 |
| 20260505201510 | 42 | 292 | 2.0 | 5.0 | 0.00 | 0.00 | 0.00 | 40 | 1012.1 |
| 20260505200019 | 43 | 288 | 2.0 | 6.0 | 0.00 | 0.00 | 0.00 | 38 | 1012.0 |
| 20260505194509 | 44 | 281 | 2.0 | 10.0 | 0.00 | 0.00 | 0.00 | 36 | 1011.8 |
| 20260505193010 | 45 | 349 | 4.0 | 10.0 | 0.00 | 0.00 | 0.00 | 36 | 1011.7 |
| 20260505191510 | 45 | 332 | 3.0 | 10.0 | 0.00 | 0.00 | 0.00 | 34 | 1011.7 |
| 20260505190010 | 46 | 333 | 6.0 | 13.0 | 0.00 | 0.00 | 0.00 | 34 | 1011.4 |
| 20260505183029 | 48 | 349 | 5.0 | 15.0 | 0.00 | 0.00 | 0.00 | 33 | 1011.0 |
| 20260505181511 | 50 | 298 | 6.0 | 12.0 | 0.00 | 0.00 | 0.00 | 29 | 1010.9 |
| 20260505180010 | 50 | 348 | 7.0 | 18.0 | 0.00 | 0.00 | 0.00 | 28 | 1010.7 |
| 20260505173018 | 51 | 355 | 7.0 | 13.0 | 0.00 | 0.00 | 0.00 | 27 | 1010.5 |
| 20260505171509 | 51 | 5 | 6.0 | 13.0 | 0.00 | 0.00 | 0.00 | 28 | 1010.5 |
| 20260505170011 | 52 | 317 | 5.0 | 15.0 | 0.00 | 0.00 | 0.00 | 26 | 1010.3 |
| 20260505164510 | 52 | 336 | 4.0 | 19.0 | 0.00 | 0.00 | 0.00 | 25 | 1010.3 |
| 20260505163010 | 53 | 321 | 1.0 | 10.0 | 0.00 | 0.00 | 0.00 | 25 | 1010.2 |
| 20260505161509 | 53 | 351 | 5.0 | 13.0 | 0.00 | 0.00 | 0.00 | 26 | 1010.2 |
| 20260505153009 | 54 | 322 | 7.0 | 15.0 | 0.00 | 0.00 | 0.00 | 26 | 1010.1 |
| 20260505151511 | 54 | 338 | 7.0 | 13.0 | 0.00 | 0.00 | 0.00 | 24 | 1010.0 |
| 20260505124509 | 53 | 283 | 6.0 | 12.0 | 0.00 | 0.00 | 0.00 | 28 | 1010.4 |
| 20260505123009 | 52 | 226 | 6.0 | 15.0 | 0.00 | 0.00 | 0.00 | 27 | 1010.5 |
| 20260505121509 | 52 | 289 | 2.0 | 13.0 | 0.00 | 0.00 | 0.00 | 28 | 1010.4 |
| 20260505120006 | 52 | 263 | 8.0 | 13.0 | 0.00 | 0.00 | 0.00 | 27 | 1010.7 |
| 20260505114509 | 51 | 272 | 4.0 | 12.0 | 0.00 | 0.00 | 0.00 | 28 | 1010.8 |
| 20260505113009 | 51 | 324 | 7.0 | 11.0 | 0.00 | 0.00 | 0.00 | 27 | 1010.9 |
| 20260505111509 | 51 | 272 | 8.0 | 14.0 | 0.00 | 0.00 | 0.00 | 26 | 1010.9 |
| 20260505101516 | 52 | 348 | 5.0 | 13.0 | 0.00 | 0.00 | 0.00 | 27 | 1011.0 |
| 20260505100012 | 53 | 17 | 3.0 | 17.0 | 0.00 | 0.00 | 0.00 | 26 | 1011.0 |
| 20260505094519 | 53 | 299 | 3.0 | 10.0 | 0.00 | 0.00 | 0.00 | 25 | 1011.2 |
| 20260505093009 | 53 | 326 | 2.0 | 12.0 | 0.00 | 0.00 | 0.00 | 27 | 1011.1 |
| 20260505091510 | 54 | 305 | 1.0 | 8.0 | 0.00 | 0.00 | 0.00 | 27 | 1011.2 |
| 20260505090009 | 53 | 17 | 4.0 | 10.0 | 0.00 | 0.00 | 0.00 | 27 | 1011.2 |
| 20260505084509 | 50 | 51 | 3.0 | 7.0 | 0.00 | 0.00 | 0.00 | 30 | 1011.3 |
| 20260505083009 | 50 | 292 | 3.0 | 9.0 | 0.00 | 0.00 | 0.00 | 31 | 1011.4 |
| 20260505081510 | 50 | 51 | 4.0 | 9.0 | 0.00 | 0.00 | 0.00 | 29 | 1011.4 |
| 20260505080009 | 47 | 22 | 7.0 | 13.0 | 0.00 | 0.00 | 0.00 | 33 | 1011.4 |
| 20260505074509 | 45 | 14 | 7.0 | 17.0 | 0.00 | 0.00 | 0.00 | 36 | 1011.4 |
| 20260505073010 | 44 | 42 | 8.0 | 17.0 | 0.00 | 0.00 | 0.00 | 37 | 1011.4 |
| 20260505071509 | 44 | 360 | 7.0 | 15.0 | 0.00 | 0.00 | 0.00 | 39 | 1011.4 |
| 20260505070009 | 43 | 11 | 7.0 | 15.0 | 0.00 | 0.00 | 0.00 | 40 | 1011.5 |
| 20260505064510 | 42 | 5 | 11.0 | 16.0 | 0.00 | 0.00 | 0.00 | 42 | 1011.4 |
| 20260505063011 | 42 | 21 | 6.0 | 13.0 | 0.00 | 0.00 | 0.00 | 44 | 1011.3 |
| 20260505061510 | 41 | 5 | 6.0 | 17.0 | 0.00 | 0.00 | 0.00 | 47 | 1011.2 |
| 20260505060010 | 40 | 5 | 9.0 | 19.0 | 0.00 | 0.00 | 0.00 | 48 | 1011.2 |
| 20260505054510 | 40 | 12 | 4.0 | 12.0 | 0.00 | 0.00 | 0.00 | 51 | 1011.1 |
| 20260505053014 | 39 | 35 | 4.0 | 10.0 | 0.00 | 0.00 | 0.00 | 55 | 1011.1 |